• In Deutschland
  • Länderverzeichnis
  • Für 7 Tage
  • Wassertemperatur
  • Satellitenkarten
  • Wetterkarte
  • Widgets
  • user-avatar
    Anmelden

    Stündliche Wetter Sidi Bu-l-Abbas

    Heute, 28 Juli, Freitag

    Zeit Temperatur Niederschläge Wind Luftdruck Luftfeuchtigkeit
    00:00 +30°C° 0 mm 1 m/S 720 mmHg 40%
    01:00 +30°C° 0 mm 1 m/S 720 mmHg 42%
    02:00 +29°C° 0 mm 1 m/S 720 mmHg 43%
    03:00 +29°C° 0 mm 1 m/S 719 mmHg 45%
    04:00 +29°C° 0 mm 1 m/S 720 mmHg 46%
    05:00 +28°C° 0 mm 1 m/S 720 mmHg 47%
    06:00 +28°C° 0 mm 1 m/S 720 mmHg 48%
    07:00 +30°C° 0 mm 1 m/S 720 mmHg 43%
    08:00 +32°C° 0 mm 1 m/S 720 mmHg 38%
    09:00 +33°C° 0 mm 1 m/S 721 mmHg 33%
    10:00 +36°C° 0 mm 2 m/S 721 mmHg 30%
    11:00 +37°C° 0 mm 2 m/S 721 mmHg 27%
    12:00 +38°C° 0 mm 3 m/S 721 mmHg 24%
    13:00 +40°C° 0 mm 4 m/S 720 mmHg 25%
    14:00 +40°C° 0 mm 4 m/S 720 mmHg 25%
    15:00 +40°C° 0 mm 5 m/S 720 mmHg 26%
    16:00 +38°C° 0 mm 4 m/S 720 mmHg 28%
    17:00 +36°C° 0 mm 4 m/S 720 mmHg 31%
    18:00 +35°C° 0 mm 4 m/S 720 mmHg 33%
    19:00 +34°C° 0 mm 3 m/S 720 mmHg 35%
    20:00 +32°C° 0 mm 2 m/S 721 mmHg 36%
    21:00 +32°C° 0 mm 1 m/S 721 mmHg 38%
    22:00 +31°C° 0 mm 1 m/S 721 mmHg 39%
    23:00 +30°C° 0 mm 1 m/S 721 mmHg 41%

    Morgen, 29 Juli, Samstag

    Zeit Temperatur Niederschläge Wind Luftdruck Luftfeuchtigkeit
    00:00 +30°C° 0 mm 1 m/S 721 mmHg 42%
    01:00 +29°C° 0 mm 1 m/S 721 mmHg 43%
    02:00 +29°C° 0 mm 1 m/S 720 mmHg 44%
    03:00 +28°C° 0 mm 1 m/S 720 mmHg 45%
    04:00 +26°C° 0 mm 0 m/S 720 mmHg 46%
    05:00 +26°C° 0 mm 0 m/S 721 mmHg 46%
    06:00 +26°C° 0 mm 0 m/S 721 mmHg 46%
    07:00 +30°C° 0 mm 1 m/S 721 mmHg 41%
    08:00 +31°C° 0 mm 1 m/S 721 mmHg 35%
    09:00 +33°C° 0 mm 1 m/S 722 mmHg 29%
    10:00 +35°C° 0 mm 2 m/S 722 mmHg 26%
    11:00 +37°C° 0 mm 2 m/S 722 mmHg 23%
    12:00 +38°C° 0 mm 3 m/S 722 mmHg 20%
    13:00 +39°C° 0 mm 3 m/S 722 mmHg 20%
    14:00 +40°C° 0 mm 4 m/S 721 mmHg 19%
    15:00 +40°C° 0 mm 4 m/S 721 mmHg 19%
    16:00 +38°C° 0 mm 4 m/S 721 mmHg 21%
    17:00 +37°C° 0 mm 4 m/S 721 mmHg 23%
    18:00 +36°C° 0 mm 4 m/S 721 mmHg 24%
    19:00 +35°C° 0 mm 3 m/S 721 mmHg 26%
    20:00 +34°C° 0 mm 2 m/S 721 mmHg 28%
    21:00 +32°C° 0 mm 1 m/S 722 mmHg 30%
    22:00 +32°C° 0 mm 1 m/S 721 mmHg 32%
    23:00 +31°C° 0 mm 1 m/S 721 mmHg 33%

    übermorgen, 30 Juli, Sonntag

    Zeit Temperatur Niederschläge Wind Luftdruck Luftfeuchtigkeit
    00:00 +31°C° 0 mm 1 m/S 721 mmHg 34%
    01:00 +31°C° 0 mm 1 m/S 721 mmHg 35%
    02:00 +30°C° 0 mm 1 m/S 721 mmHg 36%
    03:00 +28°C° 0 mm 0 m/S 720 mmHg 37%
    04:00 +30°C° 0 mm 1 m/S 720 mmHg 37%
    05:00 +30°C° 0 mm 1 m/S 720 mmHg 38%
    06:00 +29°C° 0 mm 1 m/S 720 mmHg 39%
    07:00 +31°C° 0 mm 1 m/S 721 mmHg 34%
    08:00 +33°C° 0 mm 1 m/S 721 mmHg 29%
    09:00 +34°C° 0 mm 1 m/S 721 mmHg 23%
    10:00 +37°C° 0 mm 2 m/S 721 mmHg 21%
    11:00 +38°C° 0 mm 2 m/S 721 mmHg 19%
    12:00 +39°C° 0 mm 3 m/S 721 mmHg 17%
    13:00 +39°C° 0 mm 3 m/S 720 mmHg 17%
    14:00 +41°C° 0 mm 4 m/S 720 mmHg 16%
    15:00 +41°C° 0 mm 4 m/S 719 mmHg 15%
    16:00 +40°C° 0 mm 4 m/S 719 mmHg 16%
    17:00 +38°C° 0 mm 4 m/S 719 mmHg 17%
    18:00 +37°C° 0 mm 4 m/S 718 mmHg 18%
    19:00 +36°C° 0 mm 3 m/S 719 mmHg 19%
    20:00 +35°C° 0 mm 2 m/S 719 mmHg 20%
    21:00 +33°C° 0 mm 1 m/S 719 mmHg 22%
    22:00 +33°C° 0,1 mm 1 m/S 719 mmHg 22%
    23:00 +33°C° 0,1 mm 1 m/S 719 mmHg 23%

    31 Juli, Montag

    Zeit Temperatur Niederschläge Wind Luftdruck Luftfeuchtigkeit
    00:00 +33°C° 0,1 mm 1 m/S 719 mmHg 24%
    01:00 +32°C° 0 mm 1 m/S 718 mmHg 26%
    02:00 +31°C° 0 mm 1 m/S 718 mmHg 28%
    03:00 +30°C° 0 mm 1 m/S 717 mmHg 31%
    04:00 +30°C° 0 mm 1 m/S 718 mmHg 31%
    05:00 +28°C° 0 mm 0 m/S 718 mmHg 32%
    06:00 +28°C° 0 mm 0 m/S 718 mmHg 33%
    07:00 +31°C° 0 mm 1 m/S 718 mmHg 29%
    08:00 +33°C° 0 mm 1 m/S 719 mmHg 25%
    09:00 +35°C° 0 mm 1 m/S 719 mmHg 21%
    10:00 +38°C° 0 mm 3 m/S 719 mmHg 19%
    11:00 +40°C° 0 mm 4 m/S 719 mmHg 17%
    12:00 +42°C° 0 mm 5 m/S 719 mmHg 15%
    13:00 +41°C° 0,1 mm 5 m/S 718 mmHg 17%
    14:00 +40°C° 0,1 mm 6 m/S 718 mmHg 18%
    15:00 +40°C° 0,1 mm 6 m/S 717 mmHg 20%
    16:00 +39°C° 0,1 mm 5 m/S 717 mmHg 22%
    17:00 +37°C° 0,1 mm 4 m/S 717 mmHg 24%
    18:00 +36°C° 0,1 mm 3 m/S 717 mmHg 26%
    19:00 +35°C° 0 mm 3 m/S 718 mmHg 28%
    20:00 +34°C° 0 mm 3 m/S 718 mmHg 30%
    21:00 +32°C° 0 mm 2 m/S 718 mmHg 32%
    22:00 +31°C° 0,1 mm 2 m/S 719 mmHg 32%
    23:00 +31°C° 0,1 mm 2 m/S 719 mmHg 33%

    1 August, Dienstag

    Zeit Temperatur Niederschläge Wind Luftdruck Luftfeuchtigkeit
    00:00 +31°C° 0,1 mm 2 m/S 719 mmHg 34%
    01:00 +30°C° 0,1 mm 2 m/S 719 mmHg 34%
    02:00 +30°C° 0,1 mm 2 m/S 719 mmHg 35%
    03:00 +30°C° 0,1 mm 2 m/S 718 mmHg 36%
    04:00 +29°C° 0 mm 2 m/S 719 mmHg 37%
    05:00 +29°C° 0 mm 2 m/S 719 mmHg 37%
    06:00 +29°C° 0 mm 1 m/S 719 mmHg 38%
    07:00 +30°C° 0 mm 2 m/S 719 mmHg 33%
    08:00 +31°C° 0 mm 2 m/S 720 mmHg 29%
    09:00 +34°C° 0 mm 3 m/S 720 mmHg 25%
    10:00 +35°C° 0 mm 4 m/S 720 mmHg 23%
    11:00 +36°C° 0 mm 4 m/S 720 mmHg 21%
    12:00 +39°C° 0 mm 5 m/S 720 mmHg 19%
    13:00 +37°C° 0 mm 5 m/S 720 mmHg 19%
    14:00 +37°C° 0 mm 4 m/S 720 mmHg 20%
    15:00 +37°C° 0 mm 4 m/S 720 mmHg 21%
    16:00 +37°C° 0,1 mm 4 m/S 720 mmHg 22%
    17:00 +36°C° 0,1 mm 3 m/S 720 mmHg 22%
    18:00 +36°C° 0,1 mm 3 m/S 720 mmHg 23%
    19:00 +35°C° 0 mm 2 m/S 720 mmHg 25%
    20:00 +34°C° 0 mm 2 m/S 720 mmHg 28%
    21:00 +32°C° 0 mm 1 m/S 721 mmHg 30%
    22:00 +31°C° 0 mm 1 m/S 721 mmHg 31%
    23:00 +31°C° 0 mm 1 m/S 721 mmHg 31%

    2 August, Mittwoch

    Zeit Temperatur Niederschläge Wind Luftdruck Luftfeuchtigkeit
    00:00 +31°C° 0 mm 1 m/S 721 mmHg 32%
    01:00 +30°C° 0 mm 1 m/S 720 mmHg 33%
    02:00 +30°C° 0 mm 1 m/S 720 mmHg 34%
    03:00 +29°C° 0 mm 1 m/S 720 mmHg 35%
    04:00 +29°C° 0 mm 1 m/S 721 mmHg 36%
    05:00 +29°C° 0 mm 1 m/S 721 mmHg 36%
    06:00 +29°C° 0 mm 1 m/S 721 mmHg 37%
    07:00 +31°C° 0 mm 1 m/S 721 mmHg 33%
    08:00 +35°C° 0 mm 2 m/S 722 mmHg 28%
    09:00 +37°C° 0 mm 2 m/S 722 mmHg 23%
    10:00 +38°C° 0 mm 3 m/S 722 mmHg 21%
    11:00 +39°C° 0 mm 3 m/S 722 mmHg 19%
    12:00 +42°C° 0 mm 4 m/S 722 mmHg 18%
    13:00 +42°C° 0 mm 4 m/S 722 mmHg 18%
    14:00 +42°C° 0 mm 4 m/S 722 mmHg 18%
    15:00 +42°C° 0 mm 5 m/S 721 mmHg 18%
    16:00 +41°C° 0 mm 4 m/S 721 mmHg 20%
    17:00 +40°C° 0 mm 4 m/S 721 mmHg 21%
    18:00 +38°C° 0 mm 3 m/S 721 mmHg 23%
    19:00 +37°C° 0 mm 3 m/S 721 mmHg 25%
    20:00 +36°C° 0 mm 2 m/S 722 mmHg 27%
    21:00 +34°C° 0 mm 1 m/S 722 mmHg 29%
    22:00 +33°C° 0 mm 1 m/S 722 mmHg 31%
    23:00 +33°C° 0 mm 1 m/S 722 mmHg 32%
    Mehr zeigen